User: anonymous   Login
Location: Unspecified
(0.0000°N, 0.0000°E)
Time: 17:28:23
(UTC+00:00)
Language:

AEROCUBE 6B - Orbit

View from above orbital plane
View from above orbital plane
View from above satellite
View from above satellite

Ground track
Ground track

The orbit data is extracted from the following two-line orbital elements,

1 40046U 14033AN  21336.82558583  .00000692  00000-0  10479-3 0  9995
2 40046  97.6668 178.3392 0057805  61.5051 299.1965 14.76053896400772
Epoch (UTC): 02 December 2021 19:48:50
Eccentricity: 0.0057805
inclination: 97.6668°
perigee height: 601 km
apogee height: 682 km
right ascension of ascending node: 178.3392°
argument of perigee: 61.5051°
revolutions per day: 14.76053896
mean anomaly at epoch: 299.1965°
orbit number at epoch: 40077

The dashed part of the orbit path shows where the satellite is in the earth's shadow,  

DLR